Weather History for Grand Forks, ND

Change the Weather History Date:

Wednesday, December 19, 2012

  Actual Average Record
Temperature  
Mean Temperature 22 °F 10 °F  
Max Temperature 27 °F 19 °F 44 °F (2006)
Min Temperature 16 °F 1 °F -30 °F (1955)
Degree Days  
Heating Degree Days 43 55  
Month to date heating degree days 896 983  
Since 1 July heating degree days 3024 3182  
Cooling Degree Days 0 0  
Month to date cooling degree days 0 0  
Year to date cooling degree days 572 379  
Moisture  
Dew Point 17 °F    
Average Humidity 87    
Maximum Humidity 100    
Minimum Humidity 73    
Precipitation  
Precipitation T in 0.02 in 0.20 in (1978)
Month to date precipitation 0.27 0.37  
Year to date precipitation 17.04 20.57  
Snow  
Snow T in 0.40 in 2.80 in (1985)
Month to date snowfall 3.3 6.4  
Since 1 July snowfall 13.0 15.6  
Snow Depth 3.00 in    
Sea Level Pressure  
Sea Level Pressure 29.85 in    
Wind  
Wind Speed 9 mph (West)    
Max Wind Speed 20 mph    
Max Gust Speed 23 mph    
Visibility 8 miles    
Events Snow    
T = Trace of Precipitation, MM = Missing Value Source: NWS Daily Summary

Daily Weather History Graph

Daily Weather History Graph

Search for Another Location

Airport:

Trip Planner

Search our weather history database for the weather conditions in past years. The results will help you decide how hot, cold, wet, or windy it might be!

Date:

Astronomy

Dec. 19, 2012 Rise Set
Actual Time 8:14 AM CST 4:37 PM CST
Civil Twilight 7:38 AM CST 5:13 PM CST
Nautical Twilight 6:58 AM CST 5:53 PM CST
Astronomical Twilight 6:20 AM CST 6:31 PM CST
Moon 11:54 AM CST (12/19) No Moon Set
Length of Visible Light 9h 35m
Length of Day
8h 22m
Waxing Crescent, 45% of the Moon is Illuminated
Dec 19
Waxing Crescent
Dec 19
First Quarter
Dec 28
Full
Jan 4
Last Quarter
Jan 11
New

Hourly Weather History & Observations

Time (CST) Temp. Windchill Dew Point Humidity Pressure Visibility Wind Dir Wind Speed Gust Speed Precip Events Conditions
12:53 AM 23.0 °F 17.0 °F 21.0 °F 92% 29.72 in 5.0 mi SE 4.6 mph - N/A   Overcast
1:01 AM 23.0 °F 15.8 °F 21.2 °F 93% 29.67 in 5.0 mi SE 5.8 mph - N/A   Overcast
1:13 AM 23.0 °F 17.0 °F 21.2 °F 93% 29.68 in 5.0 mi SSE 4.6 mph - N/A   Overcast
1:33 AM 24.8 °F 17.9 °F 23.0 °F 93% 29.69 in 5.0 mi SSE 5.8 mph - N/A   Overcast
1:53 AM 25.0 °F 16.3 °F 24.1 °F 96% 29.73 in 4.0 mi SSE 8.1 mph - N/A   Overcast
2:53 AM 25.0 °F 20.7 °F 24.1 °F 96% 29.73 in 4.0 mi South 3.5 mph - N/A   Overcast
3:53 AM 25.0 °F 19.3 °F 23.0 °F 92% 29.73 in 3.0 mi South 4.6 mph - N/A   Overcast
4:02 AM 24.8 °F 20.5 °F 23.0 °F 93% 29.68 in 2.5 mi South 3.5 mph - N/A   Overcast
4:15 AM 24.8 °F 20.5 °F 21.2 °F 86% 29.68 in 1.2 mi SSE 3.5 mph - N/A   Overcast
4:23 AM 24.8 °F 20.5 °F 23.0 °F 93% 29.68 in 2.0 mi South 3.5 mph - N/A   Overcast
4:30 AM 24.8 °F 20.5 °F 23.0 °F 93% 29.68 in 3.0 mi South 3.5 mph - N/A   Overcast
4:53 AM 24.1 °F 16.0 °F 23.0 °F 96% 29.73 in 4.0 mi South 6.9 mph - N/A   Overcast
5:53 AM 26.1 °F 16.2 °F 21.9 °F 84% 29.75 in 10.0 mi WSW 10.4 mph - N/A   Overcast
6:53 AM 23.0 °F 9.6 °F 17.1 °F 78% 29.77 in 10.0 mi WSW 16.1 mph - N/A   Mostly Cloudy
7:10 AM 19.4 °F 7.9 °F 14.0 °F 80% 29.73 in 10.0 mi WSW 10.4 mph - N/A   Scattered Clouds
7:53 AM 19.0 °F 7.5 °F 14.0 °F 81% 29.79 in 10.0 mi SW 10.4 mph - N/A   Mostly Cloudy
8:29 AM 19.4 °F 7.2 °F 14.0 °F 80% 29.75 in 10.0 mi WSW 11.5 mph - N/A   Mostly Cloudy
8:53 AM 19.9 °F 7.9 °F 15.1 °F 81% 29.80 in 10.0 mi WSW 11.5 mph - N/A   Overcast
9:12 AM 21.2 °F 10.9 °F 15.8 °F 80% 29.76 in 10.0 mi WSW 9.2 mph - N/A   Overcast
9:53 AM 21.9 °F 11.0 °F 17.1 °F 82% 29.83 in 10.0 mi SW 10.4 mph - N/A   Overcast
10:53 AM 23.0 °F 13.9 °F 18.0 °F 81% 29.84 in 7.0 mi West 8.1 mph - 0.00 in Snow Light Snow
11:39 AM 23.0 °F 14.7 °F 19.4 °F 86% 29.81 in 6.0 mi NNW 6.9 mph - 0.00 in Snow Light Snow
11:53 AM 21.9 °F 13.4 °F 18.0 °F 85% 29.86 in 7.0 mi NNW 6.9 mph - 0.00 in Snow Light Snow
12:53 PM 19.9 °F 8.6 °F 16.0 °F 85% 29.88 in 4.0 mi NNW 10.4 mph - 0.00 in Snow Light Snow
1:09 PM 19.4 °F 9.5 °F 15.8 °F 86% 29.84 in 6.0 mi NNW 8.1 mph - 0.00 in Snow Light Snow
1:53 PM 19.9 °F 9.3 °F 14.0 °F 78% 29.91 in 10.0 mi NNW 9.2 mph - 0.00 in Snow Light Snow
2:53 PM 19.0 °F 7.5 °F 14.0 °F 81% 29.94 in 10.0 mi NW 10.4 mph - 0.00 in   Overcast
3:53 PM 19.0 °F 6.8 °F 12.9 °F 77% 29.96 in 10.0 mi NNW 11.5 mph - N/A   Overcast
4:29 PM 17.6 °F 6.4 °F 12.2 °F 79% 29.94 in 10.0 mi NNW 9.2 mph - N/A   Overcast
4:53 PM 18.0 °F 7.7 °F 12.9 °F 81% 30.01 in 10.0 mi NW 8.1 mph - N/A   Overcast
5:32 PM 17.6 °F 6.4 °F 12.2 °F 79% 29.97 in 10.0 mi NNW 9.2 mph - 0.00 in   Overcast
5:53 PM 18.0 °F 6.9 °F 12.9 °F 81% 30.02 in 10.0 mi NNW 9.2 mph - 0.00 in   Overcast
6:53 PM 18.0 °F 5.4 °F 12.9 °F 81% 30.05 in 10.0 mi NNW 11.5 mph - N/A   Overcast
7:19 PM 17.6 °F 4.3 °F 12.2 °F 79% 30.01 in 10.0 mi NNW 12.7 mph - N/A   Overcast
7:53 PM 17.1 °F 4.3 °F 12.0 °F 81% 30.08 in 10.0 mi NNW 11.5 mph - N/A   Overcast
8:33 PM 17.6 °F 5.0 °F 12.2 °F 79% 30.03 in 10.0 mi NNW 11.5 mph - N/A   Overcast
8:53 PM 17.1 °F 6.6 °F 12.0 °F 81% 30.09 in 10.0 mi NW 8.1 mph - N/A   Overcast
9:53 PM 17.1 °F 5.8 °F 12.0 °F 81% 30.11 in 10.0 mi NNW 9.2 mph - N/A   Overcast
10:53 PM 17.1 °F 4.3 °F 10.9 °F 77% 30.11 in 10.0 mi NNW 11.5 mph - N/A   Overcast
11:53 PM 17.1 °F 8.7 °F 12.0 °F 81% 30.12 in 10.0 mi NNW 5.8 mph - N/A   Overcast